Home   Weather   Orenburg   Past weeks

Flag for Russia Past Weather in Orenburg, Russia — Yesterday and Last 2 Weeks

Now
-6 °F

Scattered clouds.


Feels Like: -19 °F
Forecast: -8 / 19 °F
Wind: 6 mph from West

Location: Orenburg / Tsentralny

Current Time: Dec 8, 2016 at 3:09:56 pm

Latest Report: Dec 8, 2016 at 2:30 pm


Visibility: N/A

Pressure: 29.98 "Hg

Humidity: 77%

Dew Point: -11 °F

Location of OrenburgLocation

Past Weather in Orenburg — Graph

°F

Orenburg Temperature Yesterday

Maximum temperature yesterday: 28 °F (at 1:30 pm)
Minimum temperature yesterday: 14 °F (at 11:00 pm)
Average temperature yesterday: 23 °F

High & Low Weather Summary for the Past Weeks

 TemperatureHumidityPressure
High37 °F (Nov 28, 6:30 pm)100% (Nov 25, 3:00 am)30.69 "Hg (Nov 25, 3:00 am)
Low-15 °F (Dec 8, 11:00 am)29% (Nov 23, 5:30 pm)29.39 "Hg (Dec 3, 8:30 pm)
Average21 °F86%29.99 "Hg
* Reported Nov 23 2:00 pm — Dec 8 2:00 pm, Orenburg, Weather by CustomWeather, © 2016

Note: Actual official high and low records may vary slightly from our data, if they occured in-between our weather recording intervals... More about our weather records

Advertising

Orenburg Weather History for the Previous 24 Hours

Scroll right to see more
 ConditionsComfort  
Time TempWeatherWind HumidityBarometerVisibility
2:00 pm
Thu, Dec 8
-6 °FScattered clouds.8 mph77%29.98 "HgN/A
1:30 pm-8 °FScattered clouds.8 mph84%29.98 "HgN/A
1:00 pm-8 °FScattered clouds.6 mph77%29.98 "HgN/A
12:30 pm-9 °FPassing clouds.6 mph84%29.98 "HgN/A
12:00 pm-9 °FSunny.6 mph77%30.01 "Hg10 mi
11:30 am-11 °FSunny.3 mph76%30.01 "Hg10 mi
11:00 am-15 °FSunny.6 mph76%30.01 "Hg10 mi
10:30 am-13 °FSunny.8 mph83%29.98 "Hg10 mi
10:00 am-13 °FPassing clouds.6 mph76%29.98 "HgN/A
9:30 am-11 °FPassing clouds.6 mph84%29.98 "HgN/A
9:00 am-8 °FLight snow. Overcast.1 mph77%29.98 "Hg5 mi
8:30 am-9 °FLight snow. Overcast.6 mph84%29.95 "Hg4 mi
7:30 am-9 °FPassing clouds.6 mph77%29.95 "HgN/A
6:30 am-9 °FClear.3 mph84%29.95 "Hg10 mi
6:00 am-9 °FPassing clouds.3 mph77%29.92 "HgN/A
5:30 am-8 °FClear.8 mph84%29.92 "Hg10 mi
5:00 am-4 °FClear.10 mph77%29.92 "Hg10 mi
4:30 am1 °FPassing clouds.13 mph78%29.92 "HgN/A
4:00 am1 °FPassing clouds.8 mph78%29.89 "HgN/A
3:30 am3 °FPassing clouds.10 mph85%29.89 "HgN/A
3:00 am7 °FLight snow. Overcast.10 mph85%29.86 "Hg3 mi
2:30 am9 °FLight snow. Overcast.8 mph85%29.86 "Hg4 mi
2:00 am10 °FLight snow. Overcast.8 mph79%29.86 "Hg4 mi
1:30 am10 °FLight snow. Overcast.8 mph85%29.86 "Hg5 mi
1:00 am12 °FOvercast.6 mph79%29.86 "HgN/A
12:30 am12 °FOvercast.6 mph79%29.86 "HgN/A
12:00 am12 °FOvercast.8 mph79%29.83 "HgN/A
11:30 pm
Wed, Dec 7
14 °FOvercast.6 mph79%29.83 "HgN/A
11:00 pm14 °FLight snow. Overcast.8 mph85%29.83 "Hg6 mi
10:30 pm16 °FOvercast.3 mph86%29.83 "HgN/A
10:00 pm16 °FOvercast.8 mph86%29.83 "HgN/A
9:30 pm16 °FOvercast.13 mph86%29.83 "HgN/A
9:00 pm18 °FOvercast.15 mph86%29.80 "HgN/A
8:30 pm19 °FPassing clouds.13 mph86%29.80 "HgN/A
7:30 pm23 °FLight snow. Passing clouds.10 mph86%29.77 "Hg6 mi
7:00 pm23 °FLight snow. Overcast.15 mph86%29.77 "Hg5 mi
6:30 pm27 °FLight snow. Overcast.10 mph93%29.74 "Hg3 mi
6:00 pm27 °FLight snow. Overcast.10 mph93%29.74 "Hg3 mi
5:30 pm27 °FLight snow. Overcast.8 mph100%29.74 "Hg1 mi
5:00 pm27 °FLight snow. Overcast.13 mph93%29.74 "Hg2 mi
4:30 pm28 °FLight snow. Overcast.13 mph93%29.71 "Hg2 mi
4:00 pm28 °FLight snow. Overcast.13 mph93%29.71 "Hg2 mi
3:30 pm28 °FLight snow. Overcast.13 mph93%29.71 "Hg2 mi
3:00 pm28 °FLight snow. Overcast.13 mph93%29.71 "Hg3 mi
Weather by CustomWeather, © 2016

See weather overviewHow to use our weather pages